• In Hungary
  • List of Countries
  • For 7 days
  • Water Temperature
  • Satellite Maps
  • Weather Map
  • News
  • Weather Widgets
  • user-avatar
    Login

    Hourly Weather Viedma

    Today, 19 November, Sunday

    Time Temperature Precipitation Wind Pressure Humidity
    00:00 +17°C° 0 mm 10 mps 746 mmHg 52%
    01:00 +16°C° 0 mm 11 mps 747 mmHg 59%
    02:00 +13°C° 0 mm 12 mps 748 mmHg 67%
    03:00 +12°C° 0 mm 11 mps 749 mmHg 65%
    04:00 +11°C° 0 mm 11 mps 751 mmHg 63%
    05:00 +8°C° 0 mm 10 mps 752 mmHg 61%
    06:00 +9°C° 0 mm 10 mps 753 mmHg 54%
    07:00 +11°C° 0 mm 10 mps 754 mmHg 48%
    08:00 +11°C° 0 mm 11 mps 754 mmHg 42%
    09:00 +12°C° 0 mm 10 mps 755 mmHg 38%
    10:00 +12°C° 0 mm 10 mps 755 mmHg 34%
    11:00 +13°C° 0 mm 10 mps 756 mmHg 29%
    12:00 +15°C° 0 mm 9 mps 756 mmHg 28%
    13:00 +15°C° 0 mm 9 mps 756 mmHg 27%
    14:00 +16°C° 0 mm 8 mps 755 mmHg 26%
    15:00 +16°C° 0 mm 7 mps 755 mmHg 24%
    16:00 +16°C° 0 mm 6 mps 755 mmHg 22%
    17:00 +16°C° 0 mm 5 mps 754 mmHg 21%
    18:00 +15°C° 0 mm 4 mps 754 mmHg 23%
    19:00 +13°C° 0 mm 4 mps 754 mmHg 25%
    20:00 +12°C° 0 mm 3 mps 754 mmHg 27%
    21:00 +12°C° 0 mm 4 mps 754 mmHg 32%
    22:00 +10°C° 0 mm 6 mps 754 mmHg 36%
    23:00 +10°C° 0 mm 7 mps 753 mmHg 41%

    Tomorrow, 20 November, Monday

    Time Temperature Precipitation Wind Pressure Humidity
    00:00 +10°C° 0 mm 7 mps 753 mmHg 45%
    01:00 +10°C° 0 mm 7 mps 752 mmHg 48%
    02:00 +10°C° 0 mm 7 mps 752 mmHg 51%
    03:00 +9°C° 0 mm 6 mps 751 mmHg 52%
    04:00 +9°C° 0 mm 5 mps 751 mmHg 52%
    05:00 +10°C° 0 mm 4 mps 751 mmHg 53%
    06:00 +11°C° 0 mm 6 mps 752 mmHg 47%
    07:00 +13°C° 0 mm 8 mps 752 mmHg 41%
    08:00 +16°C° 0 mm 10 mps 753 mmHg 35%
    09:00 +16°C° 0 mm 9 mps 754 mmHg 34%
    10:00 +17°C° 0 mm 9 mps 754 mmHg 33%
    11:00 +17°C° 0 mm 9 mps 755 mmHg 32%
    12:00 +17°C° 0 mm 9 mps 755 mmHg 30%
    13:00 +18°C° 0 mm 9 mps 755 mmHg 29%
    14:00 +18°C° 0 mm 9 mps 756 mmHg 28%
    15:00 +17°C° 0 mm 9 mps 756 mmHg 31%
    16:00 +16°C° 0 mm 9 mps 756 mmHg 34%
    17:00 +16°C° 0 mm 9 mps 757 mmHg 37%
    18:00 +13°C° 0 mm 8 mps 758 mmHg 41%
    19:00 +13°C° 0 mm 6 mps 758 mmHg 45%
    20:00 +12°C° 0 mm 5 mps 759 mmHg 48%
    21:00 +11°C° 0 mm 4 mps 759 mmHg 50%
    22:00 +11°C° 0 mm 3 mps 760 mmHg 51%
    23:00 +10°C° 0 mm 2 mps 760 mmHg 53%

    Day after tomorrow, 21 November, Tuesday

    Time Temperature Precipitation Wind Pressure Humidity
    00:00 +10°C° 0 mm 2 mps 760 mmHg 53%
    01:00 +10°C° 0 mm 2 mps 760 mmHg 54%
    02:00 +9°C° 0 mm 2 mps 759 mmHg 55%
    03:00 +9°C° 0 mm 2 mps 760 mmHg 54%
    04:00 +9°C° 0 mm 3 mps 760 mmHg 54%
    05:00 +9°C° 0 mm 3 mps 760 mmHg 53%
    06:00 +11°C° 0 mm 4 mps 760 mmHg 49%
    07:00 +13°C° 0 mm 4 mps 760 mmHg 45%
    08:00 +14°C° 0 mm 5 mps 760 mmHg 40%
    09:00 +17°C° 0 mm 5 mps 760 mmHg 36%
    10:00 +20°C° 0 mm 6 mps 759 mmHg 31%
    11:00 +22°C° 0 mm 6 mps 759 mmHg 27%
    12:00 +23°C° 0 mm 6 mps 758 mmHg 25%
    13:00 +24°C° 0 mm 6 mps 757 mmHg 24%
    14:00 +24°C° 0 mm 6 mps 756 mmHg 22%
    15:00 +24°C° 0 mm 6 mps 755 mmHg 24%
    16:00 +23°C° 0 mm 6 mps 755 mmHg 26%
    17:00 +22°C° 0 mm 6 mps 755 mmHg 28%
    18:00 +20°C° 0 mm 4 mps 755 mmHg 32%
    19:00 +18°C° 0 mm 3 mps 755 mmHg 36%
    20:00 +18°C° 0 mm 1 mps 756 mmHg 40%
    21:00 +16°C° 0 mm 2 mps 756 mmHg 42%
    22:00 +16°C° 0 mm 2 mps 756 mmHg 44%
    23:00 +15°C° 0 mm 2 mps 756 mmHg 45%

    22 November, Wednesday

    Time Temperature Precipitation Wind Pressure Humidity
    00:00 +14°C° 0 mm 3 mps 755 mmHg 46%
    01:00 +14°C° 0 mm 3 mps 755 mmHg 46%
    02:00 +14°C° 0 mm 4 mps 754 mmHg 47%
    03:00 +14°C° 0 mm 4 mps 754 mmHg 47%
    04:00 +14°C° 0 mm 5 mps 754 mmHg 46%
    05:00 +14°C° 0 mm 5 mps 754 mmHg 45%
    06:00 +16°C° 0 mm 7 mps 754 mmHg 44%
    07:00 +17°C° 0 mm 8 mps 754 mmHg 42%
    08:00 +19°C° 0 mm 10 mps 755 mmHg 40%
    09:00 +19°C° 0 mm 9 mps 755 mmHg 40%
    10:00 +21°C° 0 mm 9 mps 755 mmHg 39%
    11:00 +21°C° 0 mm 9 mps 755 mmHg 39%
    12:00 +21°C° 0 mm 8 mps 755 mmHg 38%
    13:00 +21°C° 0 mm 8 mps 755 mmHg 38%
    14:00 +21°C° 0 mm 7 mps 755 mmHg 37%
    15:00 +20°C° 0 mm 7 mps 754 mmHg 39%
    16:00 +20°C° 0 mm 7 mps 754 mmHg 41%
    17:00 +18°C° 0 mm 7 mps 754 mmHg 43%
    18:00 +17°C° 0 mm 6 mps 755 mmHg 51%
    19:00 +15°C° 0 mm 5 mps 755 mmHg 60%
    20:00 +13°C° 0 mm 4 mps 755 mmHg 69%
    21:00 +13°C° 0 mm 4 mps 755 mmHg 72%
    22:00 +12°C° 0 mm 4 mps 754 mmHg 75%
    23:00 +12°C° 0 mm 4 mps 754 mmHg 79%

    23 November, Thursday

    Time Temperature Precipitation Wind Pressure Humidity
    00:00 +12°C° 0 mm 4 mps 753 mmHg 79%
    01:00 +11°C° 0 mm 4 mps 753 mmHg 79%
    02:00 +11°C° 0 mm 4 mps 752 mmHg 80%
    03:00 +11°C° 0 mm 4 mps 752 mmHg 78%
    04:00 +11°C° 0 mm 4 mps 752 mmHg 76%
    05:00 +11°C° 0 mm 4 mps 752 mmHg 74%
    06:00 +14°C° 0 mm 6 mps 752 mmHg 62%
    07:00 +16°C° 0 mm 7 mps 752 mmHg 51%
    08:00 +20°C° 0 mm 8 mps 752 mmHg 39%
    09:00 +20°C° 0 mm 8 mps 752 mmHg 37%
    10:00 +21°C° 0 mm 9 mps 752 mmHg 35%
    11:00 +22°C° 0 mm 9 mps 752 mmHg 33%
    12:00 +21°C° 0 mm 10 mps 753 mmHg 35%
    13:00 +19°C° 0 mm 10 mps 753 mmHg 37%
    14:00 +19°C° 0 mm 11 mps 754 mmHg 38%
    15:00 +17°C° 0 mm 11 mps 755 mmHg 41%
    16:00 +16°C° 0 mm 10 mps 756 mmHg 44%
    17:00 +13°C° 0 mm 10 mps 756 mmHg 46%
    18:00 +12°C° 0 mm 9 mps 757 mmHg 47%
    19:00 +12°C° 0 mm 8 mps 758 mmHg 47%
    20:00 +11°C° 0 mm 7 mps 758 mmHg 48%
    21:00 +10°C° 0 mm 6 mps 759 mmHg 50%
    22:00 +10°C° 0 mm 5 mps 759 mmHg 51%
    23:00 +10°C° 0 mm 4 mps 759 mmHg 53%

    24 November, Friday

    Time Temperature Precipitation Wind Pressure Humidity
    00:00 +10°C° 0 mm 3 mps 759 mmHg 55%
    01:00 +9°C° 0 mm 2 mps 758 mmHg 56%
    02:00 +9°C° 0 mm 2 mps 758 mmHg 58%
    03:00 +9°C° 0 mm 2 mps 758 mmHg 59%
    04:00 +8°C° 0 mm 3 mps 758 mmHg 59%
    05:00 +7°C° 0 mm 4 mps 758 mmHg 59%
    06:00 +10°C° 0 mm 4 mps 758 mmHg 52%
    07:00 +12°C° 0 mm 5 mps 758 mmHg 45%
    08:00 +14°C° 0 mm 6 mps 758 mmHg 38%
    09:00 +17°C° 0 mm 6 mps 758 mmHg 34%
    10:00 +20°C° 0 mm 7 mps 757 mmHg 30%
    11:00 +22°C° 0 mm 8 mps 756 mmHg 26%
    12:00 +23°C° 0 mm 8 mps 756 mmHg 24%
    13:00 +26°C° 0 mm 8 mps 755 mmHg 23%
    14:00 +27°C° 0 mm 8 mps 754 mmHg 21%
    15:00 +28°C° 0 mm 8 mps 753 mmHg 21%
    16:00 +28°C° 0 mm 8 mps 753 mmHg 21%
    17:00 +28°C° 0 mm 7 mps 752 mmHg 20%
    18:00 +27°C° 0 mm 6 mps 752 mmHg 24%
    19:00 +25°C° 0 mm 4 mps 752 mmHg 27%
    20:00 +22°C° 0 mm 3 mps 752 mmHg 31%
    21:00 +22°C° 0 mm 4 mps 751 mmHg 32%
    22:00 +22°C° 0 mm 4 mps 751 mmHg 32%
    23:00 +22°C° 0 mm 5 mps 751 mmHg 33%
    Show more